This demonstration page uses our WeatherBlox Daily Observations layout. Learn more.

Left ArrowRight Arrow

Hourly Observations for February 7, 2016

Temp ( °F °C ) Dew Point ( °F °C ) Humidity (%) Winds ( mph kmh ) Pressure ( in mb ) Visibility ( mi km ) Precip ( " mm )
12:53 am 00:53 Partly Cloudy 33 0.6 16 -8.9 49 49 WNW 15 24 30.25 1024 10 16 0.00 0.00
1:53 am 01:53 Mostly Clear 32 0 16 -8.9 52 52 WNW 15 24 30.28 1025 10 16 0.00 0.00
2:53 am 02:53 Clear 30 -1.1 16 -8.9 56 56 W 14 22 30.33 1027 10 16 0.00 0.00
3:53 am 03:53 Clear 29 -1.7 16 -8.9 58 58 WNW 14 22 30.36 1028 10 16 0.00 0.00
4:53 am 04:53 Clear 27 -2.8 16 -8.9 63 63 W 9 15 30.40 1029 10 16 0.00 0.00
5:53 am 05:53 Clear 27 -2.8 16 -8.9 63 63 WNW 13 20 30.41 1030 10 16 0.00 0.00
6:53 am 06:53 Clear 25 -3.9 16 -8.9 69 69 W 10 17 30.45 1031 10 16 0.00 0.00
7:53 am 07:53 Sunny 25 -3.9 16 -8.9 69 69 W 10 17 30.49 1032 10 16 0.00 0.00
8:53 am 08:53 Sunny 29 -1.7 17 -8.3 61 61 W 8 13 30.50 1033 10 16 0.00 0.00
9:53 am 09:53 Sunny 34 1.1 18 -7.8 52 52 NW 14 22 30.51 1033 10 16 0.00 0.00
10:53 am 10:53 Sunny 37 2.8 15 -9.4 41 41 NW 15 24 30.53 1034 10 16 0.00 0.00
11:53 am 11:53 Sunny 39 3.9 13 -10.6 34 34 NW 18 30 30.52 1034 10 16 0.00 0.00
12:53 pm 12:53 Sunny 40 4.4 13 -10.6 33 33 WNW 18 30 30.52 1033 10 16 0.00 0.00
1:53 pm 13:53 Sunny 41 5 11 -11.7 29 29 NW 15 24 30.51 1033 10 16 0.00 0.00
2:53 pm 14:53 Sunny 41 5 11 -11.7 29 29 NW 15 24 30.51 1033 10 16 0.00 0.00
3:53 pm 15:53 Sunny 41 5 11 -11.7 29 29 WNW 12 19 30.52 1034 10 16 0.00 0.00
4:53 pm 16:53 Sunny 38 3.3 12 -11.1 34 34 NW 6 9 30.53 1034 10 16 0.00 0.00
5:53 pm 17:53 Clear 33 0.6 14 -10 45 45 N 6 9 30.54 1034 10 16 0.00 0.00
6:53 pm 18:53 Clear 22 -5.6 15 -9.4 75 75 SE 5 7 30.55 1035 10 16 0.00 0.00
7:53 pm 19:53 Clear 23 -5 16 -8.9 74 74 Calm 30.56 1035 10 16 0.00 0.00
8:53 pm 20:53 Clear 24 -4.4 16 -8.9 71 71 Calm 30.54 1034 10 16 0.00 0.00
9:53 pm 21:53 Clear 22 -5.6 16 -8.9 78 78 NW 3 6 30.54 1034 10 16 0.00 0.00
10:53 pm 22:53 Clear 22 -5.6 16 -8.9 78 78 Calm 30.53 1034 10 16 0.00 0.00
11:53 pm 23:53 Clear 20 -6.7 15 -9.4 81 81 SSW 7 11 30.51 1033 10 16 0.00 0.00

Powered by AerisWeather